Probability
3 0 0 0 0 0 0 0 0 0 0 0 0 0 0 0 0 0 0 0 0 0 0 0 3 6 13 10 13 10 10 10 6 3 0 0 3 0 3 0 0 0 0
3 0 0 0 0 0 0 0 0 0 0 0 0 0 0 0 0 0 0 0 0 0 0 3 3 3 6 13 10 10 10 6 6 3 3 0 0 0 0 0 0 0 0
0 0 0 0 0 0 0 0 0 0 0 0 0 0 0 0 0 0 0 0 0 0 0 0 3 3 3 6 6 10 3 3 10 3 3 3 0 0 0 0 0 0 0
0 0 0 0 0 0 0 0 0 0 0 0 0 0 0 0 0 0 0 0 0 0 0 0 0 3 3 3 6 10 10 6 3 3 3 3 3 0 0 0 0 0 0
3 0 0 0 0 0 0 0 0 0 0 0 0 0 0 0 0 0 0 0 0 0 0 0 0 0 3 3 3 3 3 3 3 3 3 0 0 0 0 0 0 0 0
0 0 0 0 0 0 0 0 0 0 0 0 0 0 0 0 0 0 0 0 0 0 0 0 0 0 0 0 3 3 3 3 3 3 3 0 0 0 0 0 0 0 0
0 0 0 0 0 0 0 0 0 0 0 0 0 0 0 0 0 0 0 0 0 0 0 0 0 0 0 0 0 0 3 3 3 3 3 3 3 0 0 0 3 0 0
0 0 0 0 0 0 0 0 0 0 0 0 0 0 0 0 0 0 0 0 0 0 0 0 0 0 0 0 0 0 0 0 0 3 3 3 3 0 0 0 0 3 0
0 0 0 0 0 0 0 0 0 0 0 0 0 0 0 0 0 0 0 0 0 0 0 0 0 0 0 0 0 0 0 0 0 0 3 3 3 3 3 0 0 0 0
0 0 0 0 0 0 0 0 0 0 0 0 0 0 0 0 0 0 0 0 0 0 0 0 0 0 0 0 0 0 0 0 0 0 0 0 3 3 3 3 0 0 0
0 0 0 0 0 0 0 0 0 0 0 0 0 0 0 0 0 0 0 0 0 0 0 0 0 0 0 0 0 0 0 0 0 0 0 0 0 0 0 0 0 0 0
0 0 0 0 0 0 0 0 0 0 0 0 0 0 0 0 0 0 0 0 0 0 0 0 0 0 0 0 0 0 0 0 0 0 0 0 0 0 0 0 0 0 0
0 0 0 0 0 0 0 0 0 0 0 0 0 0 0 0 0 0 0 0 0 0 0 0 0 0 0 0 0 0 0 0 0 0 0 0 0 0 0 0 0 0 0
0 0 0 0 0 0 0 0 0 0 0 0 0 0 0 0 0 0 0 0 0 0 0 0 0 0 0 0 0 0 0 0 0 0 0 0 0 0 0 0 0 0 0
0 0 0 0 0 0 0 0 0 0 0 0 0 0 0 0 0 0 0 0 0 0 0 0 0 0 0 0 0 0 0 0 0 0 0 0 0 0 0 0 0 0 0
0 0 0 0 0 0 0 0 0 0 0 0 0 0 0 0 0 0 0 0 0 0 0 0 0 0 0 0 0 0 0 0 0 0 0 0 0 0 0 0 0 0 0
0 0 0 0 0 0 0 0 0 0 0 0 0 0 0 0 0 0 0 0 0 0 0 0 0 0 0 0 0 0 0 0 0 0 0 0 0 0 0 0 0 0 0
0 0 0 0 0 0 0 0 0 0 0 0 0 0 0 0 0 0 0 0 0 0 0 0 0 0 0 0 0 0 0 0 0 0 0 0 0 0 0 0 0 0 0
0 0 0 0 0 0 0 0 0 0 0 0 0 0 0 0 0 0 0 0 0 0 0 0 0 0 0 0 0 0 0 0 0 0 0 0 0 0 0 0 0 0 0
0 0 0 0 0 0 0 0 0 0 0 0 0 0 0 0 0 0 0 0 0 0 0 0 0 0 0 0 0 0 0 0 0 0 0 0 0 0 0 0 0 0 0
0 0 0 0 0 0 0 0 0 0 0 0 0 0 0 0 0 0 0 0 0 0 0 0 0 0 0 0 0 0 0 0 0 0 0 0 0 0 0 0 0 0 0
0 0 0 0 0 0 0 0 0 0 0 0 0 0 0 0 0 0 0 0 0 0 0 0 0 0 0 0 0 0 0 0 0 0 0 0 0 0 0 0 0 0 0
0 0 0 0 0 0 0 0 0 0 0 0 0 0 0 0 0 0 0 0 0 0 0 0 0 0 0 0 0 0 0 0 0 0 0 0 0 0 0 0 0 0 0
0 0 0 0 0 0 0 0 0 0 0 0 0 0 0 0 0 0 0 0 0 0 0 0 0 0 0 0 0 0 0 0 0 0 0 0 0 0 0 0 0 0 0
0 0 0 0 0 0 0 0 0 0 0 0 0 0 0 0 0 0 0 0 0 0 0 0 0 0 0 0 0 0 0 0 0 0 0 0 0 0 0 0 0 0 0
0 0 0 0 0 0 0 0 0 0 0 0 0 0 0 0 0 0 0 0 0 0 0 0 0 0 0 0 0 0 0 0 0 0 0 0 0 0 0 0 0 0 0
Height
5802 5802 5802 5802 5801 5800 5800 5799 5798 5797 5796 5795 5793 5792 5791 5790 5789 5787 5787 5786 5784 5784 5783 5782 5781 5780 5780 5780 5779 5779 5779 5779 5779 5779 5779 5779 5779 5779 5780 5780 5780 5780 5780
5795 5795 5795 5795 5794 5793 5792 5791 5790 5789 5788 5786 5785 5784 5782 5781 5779 5778 5777 5776 5774 5773 5772 5771 5771 5770 5769 5769 5768 5768 5768 5768 5768 5768 5768 5768 5768 5769 5769 5769 5770 5770 5770
5788 5788 5788 5787 5786 5785 5784 5783 5782 5780 5779 5777 5776 5774 5772 5770 5769 5767 5766 5765 5763 5762 5761 5760 5759 5758 5757 5757 5756 5755 5755 5756 5756 5756 5756 5756 5757 5757 5758 5758 5759 5759 5759
5781 5781 5780 5779 5778 5777 5776 5775 5773 5771 5770 5768 5766 5764 5761 5759 5757 5756 5754 5752 5751 5750 5748 5747 5746 5745 5745 5744 5743 5742 5742 5742 5742 5743 5743 5743 5744 5744 5745 5746 5747 5747 5748
5773 5773 5772 5771 5770 5769 5767 5766 5764 5762 5760 5757 5755 5753 5750 5748 5746 5743 5741 5739 5737 5736 5735 5734 5732 5732 5731 5730 5729 5728 5728 5728 5728 5728 5729 5729 5730 5731 5731 5733 5734 5735 5736
5765 5764 5764 5762 5761 5760 5758 5756 5754 5751 5749 5747 5745 5742 5740 5737 5733 5731 5728 5726 5723 5721 5720 5719 5717 5716 5715 5714 5713 5712 5712 5712 5712 5713 5714 5714 5715 5716 5717 5718 5720 5721 5722
5757 5756 5755 5753 5752 5750 5748 5746 5743 5741 5738 5735 5733 5731 5729 5725 5722 5719 5715 5713 5710 5708 5706 5704 5702 5700 5699 5698 5697 5696 5695 5695 5696 5696 5697 5698 5699 5700 5702 5703 5705 5706 5708
5748 5747 5746 5744 5742 5740 5738 5735 5732 5730 5727 5723 5720 5717 5716 5715 5711 5707 5703 5700 5697 5694 5692 5689 5686 5684 5682 5681 5680 5679 5678 5678 5678 5679 5679 5680 5682 5684 5685 5687 5688 5690 5692
5739 5738 5736 5734 5732 5730 5727 5724 5721 5718 5716 5712 5707 5704 5701 5700 5698 5697 5691 5687 5683 5680 5677 5674 5671 5668 5665 5664 5663 5662 5661 5661 5661 5661 5661 5662 5664 5666 5668 5669 5671 5673 5676
5730 5728 5726 5724 5722 5719 5717 5714 5710 5707 5704 5700 5696 5691 5687 5683 5681 5681 5679 5674 5669 5665 5662 5658 5655 5652 5649 5647 5646 5645 5644 5643 5642 5642 5643 5643 5645 5647 5649 5651 5654 5656 5658
5720 5718 5716 5714 5711 5708 5705 5702 5699 5695 5691 5688 5684 5679 5675 5670 5665 5662 5662 5660 5656 5651 5647 5643 5639 5636 5632 5630 5628 5627 5626 5624 5623 5623 5623 5624 5625 5627 5629 5632 5635 5638 5640
5710 5708 5705 5703 5700 5697 5694 5691 5687 5683 5679 5675 5671 5666 5661 5657 5652 5647 5644 5642 5640 5637 5632 5627 5622 5618 5615 5612 5610 5608 5607 5605 5604 5603 5603 5604 5606 5607 5610 5612 5615 5619 5622
5700 5697 5694 5691 5688 5685 5682 5679 5675 5671 5667 5662 5658 5653 5648 5643 5638 5632 5628 5625 5623 5621 5617 5612 5606 5601 5598 5595 5592 5589 5588 5586 5584 5583 5583 5584 5586 5588 5590 5593 5596 5600 5603
5688 5686 5683 5680 5677 5673 5670 5667 5663 5659 5654 5650 5645 5640 5635 5629 5624 5619 5613 5608 5605 5605 5603 5598 5591 5585 5581 5578 5574 5571 5570 5567 5566 5565 5565 5566 5567 5569 5571 5574 5577 5581 5584
5677 5674 5671 5668 5665 5662 5658 5654 5650 5646 5642 5637 5632 5626 5621 5616 5611 5605 5599 5593 5588 5585 5586 5583 5576 5571 5565 5561 5557 5554 5551 5550 5548 5548 5548 5548 5549 5551 5553 5556 5559 5563 5567
5665 5662 5659 5656 5653 5650 5646 5642 5638 5633 5629 5624 5618 5613 5608 5603 5597 5591 5586 5580 5573 5567 5566 5566 5561 5555 5550 5546 5542 5537 5535 5533 5532 5531 5531 5531 5532 5534 5536 5539 5542 5545 5550
5653 5650 5647 5644 5641 5637 5633 5629 5625 5620 5615 5610 5605 5599 5594 5589 5584 5578 5572 5566 5560 5553 5549 5550 5546 5541 5535 5531 5527 5523 5520 5517 5517 5515 5514 5514 5515 5517 5519 5522 5525 5529 5533
5641 5638 5635 5632 5628 5624 5620 5615 5611 5606 5602 5597 5591 5586 5581 5575 5570 5564 5558 5552 5546 5540 5535 5534 5532 5528 5523 5517 5513 5509 5506 5503 5501 5500 5499 5499 5499 5501 5504 5506 5509 5514 5518
5629 5626 5622 5619 5615 5611 5606 5602 5597 5593 5588 5582 5577 5572 5567 5561 5556 5551 5545 5539 5534 5528 5523 5519 5518 5515 5510 5504 5500 5497 5493 5490 5488 5486 5485 5484 5485 5487 5489 5492 5496 5501 5505
5617 5613 5610 5606 5602 5597 5593 5588 5583 5578 5574 5569 5564 5559 5553 5548 5543 5537 5532 5527 5522 5517 5512 5508 5505 5502 5498 5493 5488 5484 5482 5480 5477 5474 5474 5473 5474 5475 5478 5481 5485 5490 5494
5604 5601 5597 5593 5589 5584 5579 5575 5570 5565 5561 5556 5551 5546 5540 5535 5530 5524 5519 5515 5510 5505 5501 5497 5494 5491 5487 5482 5477 5473 5471 5470 5468 5465 5465 5465 5465 5467 5468 5471 5475 5479 5484
5592 5588 5584 5580 5576 5571 5567 5562 5557 5552 5548 5543 5539 5534 5529 5523 5518 5513 5508 5503 5498 5494 5490 5486 5483 5479 5476 5472 5468 5464 5462 5460 5459 5459 5456 5457 5457 5458 5460 5463 5467 5471 5475
5580 5576 5572 5568 5564 5559 5554 5550 5545 5541 5536 5531 5527 5522 5517 5512 5507 5502 5498 5493 5489 5483 5479 5476 5473 5469 5466 5463 5459 5457 5454 5452 5450 5450 5449 5450 5451 5452 5454 5456 5460 5464 5469
5568 5564 5561 5556 5552 5548 5543 5538 5534 5529 5525 5520 5515 5511 5506 5501 5496 5492 5488 5485 5480 5476 5471 5467 5464 5461 5457 5454 5451 5449 5447 5445 5444 5444 5443 5444 5446 5447 5449 5452 5455 5459 5463
5557 5553 5549 5545 5541 5537 5532 5528 5523 5519 5515 5511 5506 5501 5496 5492 5487 5482 5479 5476 5473 5469 5464 5460 5456 5453 5450 5448 5445 5442 5441 5439 5439 5440 5439 5439 5441 5442 5445 5448 5451 5454 5458
5547 5543 5539 5535 5531 5527 5522 5518 5513 5509 5506 5502 5498 5493 5487 5483 5478 5474 5470 5467 5464 5461 5457 5454 5450 5447 5445 5442 5440 5437 5435 5434 5434 5435 5435 5436 5437 5438 5441 5444 5447 5451 5454
Wind_Speed
31 31 31 31 32 33 33 34 34 35 36 36 37 38 38 39 39 40 40 41 41 42 42 43 43 44 44 45 45 45 45 45 46 45 45 45 44 44 43 44 43 43 42
31 32 32 33 33 34 34 35 35 36 37 38 39 40 40 41 41 42 43 43 44 44 45 45 45 46 47 47 48 48 48 48 49 48 48 48 47 47 46 46 45 44 44
33 33 34 34 35 36 36 37 38 38 39 40 41 42 42 43 44 44 45 46 46 47 47 48 48 49 49 50 51 51 51 51 51 51 51 51 50 50 49 48 47 47 47
34 35 35 36 36 37 37 38 39 40 41 42 42 43 44 45 45 46 47 48 49 50 50 51 51 51 52 53 53 53 53 54 54 54 53 54 54 53 52 51 50 50 49
35 36 36 37 37 38 39 40 41 42 42 43 43 44 44 45 47 48 49 50 52 52 53 54 54 54 54 55 55 56 56 56 56 56 55 55 56 55 55 54 53 52 51
36 37 38 38 39 40 41 42 43 44 44 45 45 45 46 47 48 49 50 51 53 54 55 56 56 57 57 58 58 58 58 59 59 59 59 58 58 58 57 57 56 55 54
37 38 39 40 40 42 43 44 44 45 46 47 47 47 47 47 48 48 49 51 52 53 55 56 57 58 59 60 60 60 61 61 61 62 62 62 61 60 60 59 58 57 56
38 39 40 41 42 43 44 45 45 46 47 48 49 49 48 48 49 49 50 51 52 53 54 55 57 58 60 60 60 60 61 62 63 64 64 64 63 62 61 60 61 59 58
39 40 41 42 43 44 45 45 46 47 47 48 50 51 51 51 50 50 51 52 53 55 56 57 57 57 58 59 59 60 61 62 63 64 65 65 65 65 63 62 62 61 59
40 41 42 43 44 45 45 46 47 48 49 50 51 52 54 54 55 54 53 54 55 56 57 57 58 57 58 58 59 60 61 62 64 64 64 65 66 66 64 63 63 62 62
41 42 43 44 45 46 46 47 48 50 51 52 53 53 54 55 56 57 56 55 55 56 57 58 59 59 59 59 60 60 61 62 63 64 64 64 65 66 66 66 65 63 62
43 44 45 46 46 47 47 49 50 51 52 52 53 54 55 56 57 58 58 57 56 56 57 58 59 59 59 59 60 61 62 62 62 63 62 63 63 63 64 65 64 64 63
44 45 46 47 47 48 49 50 50 51 52 53 54 55 56 57 57 58 59 58 58 57 57 57 58 58 59 60 60 61 61 61 61 61 61 61 61 62 62 62 62 63 62
46 47 47 47 48 49 49 50 51 52 53 54 55 56 57 57 58 58 59 60 60 58 57 56 56 57 58 58 59 59 59 59 58 57 58 58 58 58 59 59 60 61 60
47 47 47 48 49 50 51 51 52 54 55 55 56 57 58 58 58 59 60 61 62 61 58 55 55 55 55 55 56 56 57 56 56 55 55 56 56 56 56 57 57 57 57
48 48 48 49 50 51 52 53 54 55 56 56 58 58 58 58 58 59 59 60 61 61 58 54 54 54 54 54 54 55 54 53 53 53 54 54 55 55 55 55 55 55 56
48 48 49 50 51 52 53 54 55 56 57 57 58 58 58 58 58 58 58 58 59 59 57 52 52 51 52 52 51 50 51 51 51 51 51 50 50 50 51 51 52 52 53
48 49 50 51 52 53 55 56 56 57 57 57 58 58 58 58 57 57 57 57 57 55 53 51 49 48 49 49 48 47 47 47 47 46 46 45 45 46 46 46 47 47 48
49 50 51 52 53 54 56 56 57 57 57 57 58 57 57 57 56 56 56 55 53 52 51 49 48 47 47 47 46 45 44 43 43 41 40 39 40 40 40 40 42 43 44
50 51 52 53 54 55 56 56 57 57 56 56 56 56 56 55 55 54 53 51 50 49 48 47 47 46 45 44 44 43 41 39 38 36 35 34 34 35 36 37 38 39 40
51 52 53 53 54 54 55 55 55 55 55 54 54 54 53 53 53 52 51 50 49 47 46 46 45 45 43 41 40 39 37 36 34 34 31 30 29 31 32 34 35 36 36
51 51 52 52 52 52 53 53 53 52 52 52 52 52 51 51 50 49 49 48 46 45 45 44 43 42 40 37 36 35 34 32 31 29 28 26 25 26 26 27 28 29 30
49 49 49 50 50 50 51 50 50 50 50 50 50 49 49 48 47 46 44 43 43 42 42 42 41 39 36 33 33 32 30 28 26 25 24 22 22 22 23 23 24 25 26
48 48 48 49 49 48 48 48 48 48 47 47 47 46 46 44 43 42 41 40 39 38 39 39 37 35 32 30 29 28 25 24 23 22 21 20 20 19 18 19 22 23 23
46 46 46 47 46 46 46 46 46 46 45 44 44 44 43 42 40 40 39 37 36 35 35 34 33 30 28 27 26 25 22 21 19 17 17 16 17 17 16 17 19 20 22
45 45 46 45 45 44 44 44 44 43 42 42 41 41 39 39 38 37 36 34 33 32 31 29 28 26 24 24 23 21 19 18 16 13 12 13 13 14 15 15 16 18 19
Wind_Direction
271 272 275 277 278 279 280 281 282 282 282 282 282 282 282 281 280 279 279 279 278 278 277 277 277 276 275 274 273 273 272 271 271 271 271 270 270 270 269 270 270 269 270
271 273 276 277 279 280 280 281 282 283 283 283 283 283 282 281 281 280 280 279 279 278 278 277 277 277 276 275 274 273 272 272 271 270 270 270 270 270 270 269 270 269 269
272 274 276 278 279 280 281 282 283 284 284 284 283 283 283 282 281 280 279 279 279 278 278 278 277 277 276 275 274 273 272 271 271 270 269 269 269 269 268 268 269 269 269
273 275 277 278 279 281 282 283 284 285 285 285 285 284 284 282 282 281 281 280 279 279 278 278 277 277 276 275 275 274 272 271 271 270 269 269 268 267 267 268 268 268 268
274 276 277 279 280 282 283 284 285 286 286 286 286 286 286 285 284 284 283 282 280 280 279 279 278 277 277 276 275 274 273 272 271 270 270 269 268 267 267 267 267 267 267
275 277 278 280 281 283 285 286 286 287 287 287 287 287 287 288 287 286 285 284 282 282 281 281 280 279 277 277 275 274 273 272 271 270 269 268 268 267 267 267 266 266 266
276 278 280 281 283 285 286 287 288 288 288 288 288 288 288 288 289 289 287 286 285 284 283 283 282 280 279 277 276 274 273 272 271 270 269 267 267 267 267 266 266 265 265
278 280 282 283 285 286 287 288 288 289 290 290 289 289 288 288 288 289 289 288 287 286 285 285 284 283 281 279 276 274 273 272 271 270 268 267 266 266 266 266 265 264 264
280 281 283 285 287 288 289 289 290 290 290 291 291 291 290 290 289 289 290 289 288 288 287 286 286 285 283 280 277 275 274 273 272 270 268 267 266 265 265 265 264 263 263
281 283 284 286 288 289 289 290 290 291 291 292 292 292 292 292 291 290 290 290 290 289 289 288 287 286 284 281 279 277 276 274 273 271 269 267 266 264 263 263 264 263 262
283 284 286 288 289 289 289 290 291 291 292 292 293 293 293 293 293 293 292 291 291 291 290 289 288 286 285 283 281 278 276 275 273 272 270 268 266 264 263 262 262 262 262
284 286 287 288 289 289 289 290 291 292 293 293 294 294 294 295 295 295 294 293 292 291 292 292 289 287 285 284 282 280 278 276 275 273 271 269 267 265 263 262 261 260 260
285 286 288 288 289 289 290 291 292 293 294 294 295 295 295 295 295 296 296 295 293 293 293 293 291 288 286 285 284 282 280 278 276 274 272 270 268 265 263 262 260 259 259
285 286 288 288 289 289 290 291 292 294 295 295 296 296 296 296 296 297 297 296 295 294 294 293 291 290 289 287 286 283 281 278 277 274 271 269 268 266 263 260 259 257 257
286 287 288 288 289 289 290 291 292 294 295 296 296 297 297 297 297 297 297 297 297 296 295 293 291 291 289 288 288 285 283 279 276 273 271 270 267 266 263 261 258 256 256
286 287 287 288 289 290 291 292 293 294 295 296 296 297 297 297 298 298 298 298 298 297 296 294 292 292 291 290 288 286 284 279 277 274 273 271 268 265 264 261 259 256 256
286 287 287 288 289 290 291 292 294 295 295 296 297 297 298 298 298 298 298 298 299 298 297 295 294 293 292 292 290 287 284 281 278 278 275 272 269 265 263 261 259 256 254
285 286 287 289 290 291 292 293 294 295 295 296 296 297 298 298 298 298 299 299 299 298 297 296 295 295 294 294 292 288 286 283 280 279 276 272 268 265 264 262 258 255 254
286 287 288 289 290 291 292 293 294 295 295 296 297 297 298 298 298 299 299 299 299 298 297 297 297 296 297 296 294 289 287 284 282 281 277 272 269 266 262 259 257 254 252
286 287 288 290 290 291 292 294 294 295 295 296 297 298 298 298 299 300 299 299 298 298 297 298 299 298 299 297 295 291 288 285 284 282 280 275 271 266 261 257 254 253 252
286 288 289 290 291 292 293 294 295 295 296 297 297 298 299 299 300 300 300 299 299 298 297 299 300 300 300 298 296 293 290 287 284 283 280 277 273 267 260 254 252 252 252
287 289 290 290 291 292 293 294 295 296 297 297 298 299 299 300 300 300 300 299 298 298 299 299 301 301 301 300 298 297 295 288 285 284 280 277 275 270 259 252 250 248 246
288 289 289 290 291 292 294 294 296 297 298 299 299 300 300 301 300 300 300 300 300 300 300 301 302 302 300 299 299 298 296 293 288 284 280 276 274 269 258 252 248 242 240
288 288 290 291 292 293 295 295 297 298 299 300 301 300 300 301 301 300 300 300 300 301 302 302 302 301 299 297 298 300 298 294 288 284 278 276 270 264 256 245 241 239 238
288 289 291 292 293 294 295 296 298 299 300 301 301 301 301 301 302 302 302 301 302 303 303 303 303 300 298 298 300 300 299 297 290 281 277 275 268 263 251 242 237 238 238
287 290 292 293 295 295 296 297 298 299 301 302 302 302 302 302 302 302 302 304 305 305 304 303 304 302 300 300 299 298 297 296 293 280 273 274 269 262 250 241 235 234 235